Regional Weather Roundup
Issued by NWS

Home | Current Version | Previous Version | Text Only | Print | Product List | Glossary Off
Versions: 1 2 3 4 5 6 7 8 9 10 11 12 13 14 15 16 17 18 19 20 21 22 23 24 25 26 27 28 29 30 31 32 33 34 35 36 37 38 39 40 41 42 43 44 45 46 47 48 49 50

000
ASUS43 KFSD 191710
RWRSD

WEATHER ROUNDUP FOR SOUTH DAKOTA
NATIONAL WEATHER SERVICE SIOUX FALLS SD
1100 AM CST SUN NOV 19 2017

NOTE: "FAIR" INDICATES FEW OR NO CLOUDS BELOW 12,000 FEET WITH NO
SIGNIFICANT WEATHER AND/OR OBSTRUCTIONS TO VISIBILITY.


SDZ001>005-009-010-012>017-191800-
NORTHWEST AND NORTH CENTRAL SOUTH DAKOTA

CITY           SKY/WX    TMP DP  RH WIND       PRES   REMARKS
BUFFALO          N/A     43  21  41 SW12      29.85F
FAITH            N/A     40  25  55 SW9       29.94F
MOBRIDGE       CLOUDY    40  26  57 S7        29.89F
$$

SDZ012>016-024>037-041>051-057-063-072>074-191800-
SOUTHWEST AND SOUTH CENTRAL SOUTH DAKOTA

CITY           SKY/WX    TMP DP  RH WIND       PRES   REMARKS
RAPID CTY ARPT SUNNY     42  27  55 CALM      29.95F
PIERRE         SUNNY     38  25  59 VRB6      29.96F
CUSTER         CLOUDY    41  15  35 SW6       29.97F
ELLSWORTH AFB  SUNNY     47  18  30 CALM      29.94F
PHILIP         SUNNY     43  27  53 W13       29.97F
PINE RIDGE     SUNNY     45  18  34 W12       30.02F
SPEARFISH      FAIR      48  14  25 W6G13     29.94F
WINNER         FAIR      45  26  47 SW10      30.00F
$$

SDZ004>011-016>023-039-040-191800-
NORTHEAST SOUTH DAKOTA

CITY           SKY/WX    TMP DP  RH WIND       PRES   REMARKS
ABERDEEN       SUNNY     35  27  72 S10       29.95F WCI  27
WATERTOWN      SUNNY     39  27  62 SW9       29.96F
BROOKINGS        N/A     40  26  57 MISG        N/A
SISSETON         N/A     43  25  49 SW14      29.91F
$$

SDZ017-020-022-023-036>040-048>070-191800-
SOUTHEAST SOUTH DAKOTA

CITY           SKY/WX    TMP DP  RH WIND       PRES   REMARKS
SIOUX FALLS    MOSUNNY   42  27  55 SW6       30.04F
HURON          SUNNY     41  28  60 S8        29.98F
CHAMBERLAIN    SUNNY     42  27  54 SW7       30.00F
MITCHELL       SUNNY     44  28  53 S8        30.02F
YANKTON        SUNNY     43  27  53 S3        30.07F
$$

ABBREVIATIONS USED IN REMARKS
   TC - TEMPERATURE IN CELSIUS
  WCI - WIND CHILL INDEX
   HX - HEAT INDEX
  VSB - VISIBILITY





USA.gov is the U.S. government's official web portal to all federal, state and local government web resources and services.